Temp
24 24 24 23 23 23 24 24 24 24 24 24 24 24 24 24 24 24 24 24 24 24 24 24 24 25 25 24 24 24 25 25 24 24 23 23 23 23 23 23 22 22 21 21 21 21 21 21 21 21 21 21 21 21 21 21 20 20 20 20 20 21 20 20 20 20 20 20 20 20 20 20 20 20 20 20 20 20 20 20 20 20 20 19 19
24 24 24 24 23 24 24 24 24 24 24 24 24 23 23 24 24 24 24 24 24 24 24 24 24 25 25 24 24 24 25 25 25 24 24 24 24 24 23 23 23 22 22 21 21 21 21 21 21 21 21 21 20 21 21 21 20 20 20 20 20 20 20 20 20 20 20 20 20 20 20 20 20 20 20 20 20 20 20 20 20 20 20 20 19
24 24 24 24 23 24 24 24 24 24 24 24 24 23 24 24 24 24 24 24 24 24 24 24 24 25 25 25 25 25 24 24 25 24 24 24 24 24 23 23 23 22 22 22 21 21 21 21 21 21 21 21 21 21 21 21 20 20 20 20 20 20 20 20 20 20 20 20 20 20 20 20 20 20 20 20 20 20 20 20 20 20 20 20 20
24 24 24 24 24 24 24 24 24 24 24 23 23 23 24 24 24 24 24 24 24 24 24 24 24 25 25 25 25 25 24 24 24 25 24 24 24 24 23 23 23 23 22 22 22 21 21 21 21 21 20 21 21 21 20 21 21 20 20 20 20 20 20 20 20 20 20 20 20 20 20 20 20 20 20 20 20 20 20 20 20 20 20 20 20
24 24 24 24 24 24 24 24 24 24 23 23 23 23 23 24 24 24 24 24 24 24 24 24 24 24 25 25 25 25 25 25 25 25 25 24 24 24 23 23 23 23 22 22 22 22 21 21 21 21 21 21 21 21 20 20 21 21 21 21 20 20 20 20 20 20 20 20 20 20 20 20 20 20 20 20 20 20 20 20 20 20 20 20 20
24 24 24 24 24 24 24 24 24 23 23 23 23 23 23 23 24 24 24 24 24 24 24 24 24 25 25 24 24 24 24 25 25 25 25 24 24 24 23 23 23 23 22 22 22 22 22 21 21 21 21 21 21 20 20 20 21 21 21 20 20 20 20 20 20 20 20 20 20 20 20 20 20 20 20 20 20 20 20 20 20 20 20 20 20
24 24 24 24 24 24 24 24 24 23 23 23 23 23 23 23 23 23 24 24 24 24 24 24 24 25 25 24 24 24 24 25 25 25 24 24 24 23 23 23 23 22 22 22 22 22 22 22 21 21 21 21 21 21 20 20 21 20 20 20 20 20 20 20 20 20 20 20 20 20 20 20 20 20 20 20 20 20 20 20 20 20 20 20 20
24 24 24 24 24 24 24 24 23 23 23 23 23 23 23 23 23 23 24 24 24 24 24 24 24 24 24 24 24 24 24 24 24 24 24 24 23 23 23 23 22 22 22 22 22 22 22 22 21 21 21 21 21 21 20 20 20 20 20 20 20 20 20 20 20 20 20 20 20 20 20 20 20 20 20 20 20 20 20 20 20 20 20 20 20
24 24 24 24 24 23 23 23 23 23 23 23 23 23 23 23 23 23 23 23 23 23 23 24 24 24 24 24 24 24 24 24 24 24 24 23 23 23 22 22 22 22 22 22 22 22 22 22 21 21 21 21 21 21 20 20 20 20 20 20 20 20 20 20 20 20 20 20 20 20 20 20 20 20 20 20 20 20 20 20 20 20 20 20 20
24 24 24 24 23 23 23 23 23 23 23 23 23 22 23 22 23 23 23 23 23 23 23 23 24 24 24 24 24 24 24 24 24 23 23 23 23 23 23 23 23 22 22 22 22 22 22 22 21 21 21 21 21 21 21 20 21 21 20 20 20 20 20 20 20 20 20 20 20 20 20 20 20 20 20 20 20 20 20 20 20 20 20 20 20
24 24 24 23 23 23 23 23 23 23 23 22 22 22 22 22 22 23 23 23 23 23 23 23 23 23 24 24 24 24 24 24 24 24 23 23 23 23 23 23 23 23 22 22 22 22 21 21 21 21 21 21 21 21 21 21 21 21 20 20 20 20 20 20 20 20 20 20 20 20 20 20 20 20 20 20 20 20 20 20 20 20 20 20 20
24 24 24 24 23 23 23 23 22 22 22 22 22 22 22 22 22 22 23 23 23 23 23 23 23 23 23 23 24 24 24 24 24 24 24 23 23 23 23 23 23 23 22 22 22 22 22 22 21 21 21 21 21 21 21 20 20 20 20 20 20 20 20 20 20 19 20 20 19 20 20 20 20 20 20 20 20 20 20 20 20 20 20 20 20
24 24 24 24 23 23 23 23 22 22 22 22 22 22 22 22 22 22 22 22 22 23 23 23 23 23 23 23 24 24 24 24 24 24 24 24 23 23 23 22 22 22 22 22 22 22 22 22 21 21 21 21 21 21 20 20 20 20 20 20 20 20 20 20 20 20 20 19 19 19 20 20 20 20 20 20 20 20 20 20 20 20 20 20 20
25 24 24 24 23 23 23 23 22 22 22 22 22 22 22 22 22 22 22 22 23 23 23 23 22 23 23 23 23 23 24 24 24 24 24 24 24 23 23 22 22 22 22 22 22 23 23 22 22 21 21 21 21 20 20 20 20 20 20 20 20 20 20 20 20 20 20 20 19 19 19 19 20 20 20 20 19 19 19 19 20 20 20 20 20
25 24 24 24 23 23 23 23 22 22 22 22 22 22 22 22 22 22 22 22 23 23 23 23 23 23 23 23 22 23 23 23 24 24 24 24 23 23 23 23 22 22 22 22 22 22 23 23 22 22 21 21 21 20 20 20 20 20 20 20 20 20 20 20 20 20 20 20 20 19 19 19 19 19 19 19 19 19 19 19 19 19 19 19 19
25 24 24 24 23 23 23 23 22 22 22 22 22 22 22 22 22 23 22 22 23 23 23 23 23 23 23 22 21 22 23 23 23 23 23 24 23 23 23 23 22 22 22 22 22 22 23 23 23 23 22 22 21 21 20 20 20 21 21 21 21 21 20 20 19 19 19 19 19 19 19 19 19 19 19 19 19 19 19 19 19 19 19 19 19
25 24 24 24 23 23 23 22 22 22 22 22 22 23 22 22 22 22 22 22 23 23 23 23 23 23 23 22 21 22 22 22 22 23 23 23 23 23 23 23 22 22 22 22 22 22 23 23 23 23 23 22 21 21 21 21 21 21 21 21 22 21 21 20 20 19 19 19 20 20 20 19 19 19 19 19 19 19 19 19 19 19 19 19 19
24 24 24 24 24 23 23 22 22 22 22 22 23 23 23 22 22 23 22 23 23 23 23 23 23 23 24 23 23 23 22 22 22 22 22 23 23 23 23 22 22 22 22 22 22 22 22 23 23 23 22 22 21 21 21 21 21 21 21 21 22 22 21 21 21 20 20 20 20 20 20 20 20 20 20 20 19 19 19 19 19 19 19 19 19
24 24 24 24 23 23 23 23 23 23 23 23 23 23 23 23 22 22 23 23 23 23 23 23 23 23 23 23 23 23 23 23 22 22 22 22 23 23 23 22 22 23 23 22 22 22 22 22 22 22 22 21 21 21 21 21 21 21 21 21 21 21 21 21 21 21 21 21 21 21 21 21 21 21 20 20 20 20 20 19 19 19 19 19 19
24 24 24 24 23 23 23 23 23 23 23 22 23 23 23 23 22 22 23 23 23 23 23 23 23 23 23 23 23 23 23 23 23 23 22 22 22 22 22 22 22 23 23 23 22 22 22 22 22 22 22 22 22 22 21 21 21 21 21 21 21 21 21 21 21 21 21 21 21 21 21 21 21 21 21 21 21 20 20 20 20 20 20 19 19
24 24 24 23 23 23 23 23 23 23 23 22 22 22 22 23 22 22 23 23 23 23 23 22 23 23 23 23 23 23 23 23 23 23 22 22 22 21 22 22 22 22 23 22 22 22 22 22 22 22 22 22 22 22 22 22 22 21 21 21 21 21 21 21 21 21 21 21 21 20 21 21 21 21 21 21 20 20 20 20 20 20 20 20 20
24 24 24 23 23 23 23 23 23 23 23 23 22 22 23 23 23 23 23 23 23 23 23 22 23 23 23 23 22 23 23 23 23 23 23 22 22 21 22 22 21 22 22 22 23 22 22 22 22 22 22 22 22 22 22 22 22 22 21 21 21 21 21 21 20 20 20 20 20 20 20 20 20 20 20 20 20 20 20 20 20 20 20 20 20
24 24 23 23 23 23 23 22 22 23 23 23 22 23 23 23 23 23 23 23 23 23 23 23 23 23 23 23 23 23 23 23 23 23 23 21 22 21 21 22 22 22 22 22 22 22 22 22 22 22 22 22 22 22 22 22 22 21 21 21 21 21 21 20 20 20 20 20 20 20 20 20 20 20 20 20 20 20 20 20 20 20 20 20 20
24 23 23 23 23 23 23 22 22 23 23 23 23 23 23 23 23 23 23 23 23 23 23 23 23 23 23 23 23 23 23 23 23 24 23 23 23 21 21 22 22 22 22 22 22 22 22 22 22 22 22 22 22 22 22 22 22 21 21 21 21 21 21 21 20 20 20 20 20 20 20 19 19 19 20 20 20 20 20 20 20 20 20 20 20
24 24 23 23 23 23 23 23 22 23 23 23 23 23 23 23 23 23 23 23 23 23 23 22 23 23 23 23 23 23 23 23 23 23 24 24 23 21 21 22 22 22 22 22 22 22 22 22 22 22 22 22 22 22 22 22 22 21 21 21 21 21 21 21 21 20 20 20 19 20 20 20 19 19 19 19 19 19 19 20 20 20 20 20 19
24 24 24 23 23 23 23 23 23 23 23 23 23 23 23 23 23 23 23 23 23 22 22 22 22 23 23 23 23 23 23 23 23 23 23 24 23 22 21 21 21 21 22 22 22 22 22 22 22 22 22 22 22 22 22 22 22 21 21 21 21 21 21 21 21 20 20 20 20 20 19 19 19 19 19 19 19 19 19 19 19 19 19 19 19
24 24 24 24 23 23 23 23 23 23 23 23 23 23 23 23 23 23 23 23 23 22 22 22 22 23 23 23 22 22 23 23 23 23 23 23 23 23 22 21 20 20 20 21 21 22 22 22 22 22 22 22 22 22 22 22 22 21 21 21 21 21 21 21 20 20 20 20 20 20 19 19 19 19 19 19 19 19 19 19 19 19 19 19 19
25 24 24 24 24 23 23 23 23 23 23 23 23 23 23 23 23 23 23 23 22 22 22 22 22 22 22 22 22 22 23 23 23 23 23 23 23 23 23 22 21 20 20 20 20 20 22 22 22 22 22 22 22 22 22 22 21 21 21 21 21 21 21 20 20 20 20 20 20 19 19 19 19 19 19 19 19 19 18 18 18 18 18 18 18
25 24 24 24 24 23 23 23 23 23 23 23 23 23 23 23 23 23 23 23 22 22 22 22 22 22 22 22 22 22 23 22 23 23 23 23 23 23 23 22 22 21 21 21 20 20 21 21 21 22 22 22 22 22 21 21 21 21 21 21 21 21 21 20 20 20 20 20 19 19 19 19 19 19 19 19 19 19 19 18 18 18 18 18 18
25 24 24 24 24 24 23 23 23 23 23 23 23 23 23 23 23 23 23 23 22 22 22 22 22 22 22 22 22 22 23 23 22 22 22 22 22 22 22 22 22 22 21 21 21 20 21 21 21 21 21 21 21 21 21 21 21 21 21 21 21 21 21 20 20 20 20 20 20 19 19 19 19 19 19 19 19 19 19 19 18 18 18 18 18
25 24 24 24 24 23 23 23 23 23 23 23 23 23 23 23 23 23 23 23 22 22 22 22 23 22 22 22 22 22 22 22 22 22 22 22 22 22 22 22 22 22 21 20 20 20 21 21 21 21 21 21 21 21 21 21 21 21 21 21 21 21 20 20 20 20 20 20 20 20 19 19 19 19 19 19 19 19 19 19 19 19 18 18 18
25 24 24 24 24 23 23 23 23 23 23 23 23 23 23 23 23 23 23 23 22 22 22 22 22 23 22 22 22 22 22 22 22 22 22 22 22 22 22 22 22 22 21 20 19 20 21 21 21 21 21 21 21 21 21 21 21 21 21 21 21 21 20 20 20 20 20 20 20 20 19 19 19 19 19 19 19 19 19 19 19 19 19 19 19
25 24 24 24 24 24 23 23 23 23 23 23 23 23 23 23 23 23 23 22 22 22 22 22 22 22 22 22 22 22 22 22 22 22 22 22 22 21 21 21 21 21 21 20 19 19 20 21 21 21 21 21 21 21 21 21 21 20 20 20 20 20 20 20 20 20 20 20 20 20 20 19 19 19 19 19 19 19 19 19 19 19 19 19 19
25 24 24 24 24 24 23 23 23 23 23 23 23 23 23 23 23 23 23 22 22 22 22 22 22 22 22 22 22 22 22 22 22 22 22 22 22 21 21 21 21 21 21 21 20 19 19 20 21 20 21 20 20 21 21 20 20 20 20 20 20 20 20 20 20 20 20 20 20 20 20 19 19 19 19 19 19 19 19 19 19 19 19 19 19
25 24 24 24 24 24 24 23 23 23 23 23 23 23 23 23 23 23 23 23 22 22 22 22 22 22 22 22 22 22 22 22 22 22 22 22 21 21 21 21 21 21 21 21 21 20 19 20 20 20 20 20 20 20 20 20 20 20 20 20 20 20 20 20 20 20 20 20 20 20 20 19 19 19 19 19 19 19 19 19 19 19 19 19 19
24 24 24 24 24 24 24 24 23 23 23 23 23 23 23 23 23 23 23 23 22 22 22 22 22 22 22 22 22 22 22 22 22 22 21 21 21 21 21 21 21 21 21 21 20 20 20 20 20 20 20 20 20 20 20 20 20 20 20 20 20 20 19 20 20 19 19 20 20 20 19 19 19 19 19 19 19 19 19 19 19 19 19 19 19
24 24 24 24 24 24 24 24 23 23 23 23 23 23 23 23 23 23 23 22 22 22 22 22 22 22 22 22 22 22 22 22 21 21 21 21 21 21 21 21 21 21 21 21 21 20 20 20 20 20 20 20 20 20 20 20 20 20 20 20 20 19 19 19 19 19 19 19 19 19 19 19 19 19 19 19 19 19 19 18 18 18 19 19 19
24 24 24 24 24 24 24 24 24 24 23 23 23 23 23 23 23 23 23 23 22 22 22 21 21 21 21 21 22 22 22 22 21 21 21 21 21 21 21 21 21 21 21 21 21 21 20 20 20 20 20 20 20 20 20 20 19 19 19 19 19 19 19 19 19 19 19 19 19 19 19 19 19 19 19 18 18 18 18 18 18 18 18 18 19
24 24 24 24 24 24 24 24 24 24 23 23 23 23 22 22 22 22 23 23 23 22 22 21 21 21 21 21 21 21 21 21 21 21 21 21 21 21 21 21 21 21 21 21 20 20 20 20 20 20 19 19 19 20 20 19 19 19 19 19 19 19 19 19 19 18 18 18 18 18 18 18 18 18 18 18 18 18 18 18 18 18 18 18 18
24 24 24 24 24 24 24 24 23 23 23 23 23 22 22 22 22 22 22 23 23 22 21 21 21 21 21 21 21 21 21 21 21 21 21 21 21 21 21 21 21 21 21 20 20 20 20 20 19 19 19 19 19 19 19 18 18 18 19 18 18 19 18 18 18 18 18 18 18 18 18 18 18 18 18 17 17 17 17 17 17 18 18 18 18
24 24 24 24 24 23 23 23 23 23 23 23 23 22 22 22 22 22 22 23 23 22 21 21 21 21 21 21 21 21 21 21 21 21 21 21 21 21 21 21 21 20 20 20 20 20 19 19 19 19 18 18 19 18 18 18 18 18 18 18 18 18 18 18 18 18 18 18 18 18 17 17 17 17 17 17 17 17 17 17 17 17 17 17 17
24 24 24 24 24 23 23 23 23 23 23 23 23 23 23 22 22 22 22 22 22 21 21 20 20 20 21 21 21 21 21 21 21 21 21 21 21 21 21 20 20 20 20 20 19 19 19 18 19 18 18 18 18 18 18 18 18 18 18 18 18 18 17 17 17 18 18 17 17 17 17 17 16 16 16 17 17 17 17 17 17 17 17 17 17
24 24 24 24 24 24 23 23 23 23 23 23 23 23 23 22 22 22 22 22 22 21 20 20 20 20 20 21 21 21 21 21 21 21 21 21 21 21 21 20 20 20 20 20 20 19 19 18 18 18 17 17 18 18 17 17 17 17 17 17 17 17 17 16 16 17 18 17 16 16 16 17 16 16 16 17 17 17 17 17 17 17 17 17 17
25 24 24 24 24 24 24 24 23 23 23 23 23 23 23 22 22 22 22 22 21 21 20 20 20 20 20 20 21 21 21 21 21 20 20 20 20 20 20 20 20 20 20 20 20 20 19 19 18 18 18 17 18 18 17 17 17 17 17 17 17 17 17 16 15 16 17 17 16 15 15 17 17 16 16 16 16 16 16 16 16 16 16 17 17
25 24 24 24 24 24 24 24 24 24 24 24 23 23 23 23 23 23 22 21 21 20 20 20 20 20 20 20 20 21 21 21 21 20 20 20 20 20 20 20 20 20 20 20 20 19 19 19 18 18 18 18 17 17 17 17 17 17 17 17 17 16 16 16 16 16 17 17 16 15 15 16 16 15 15 16 16 16 16 16 16 16 16 16 16
25 25 25 25 25 25 24 24 24 24 24 23 23 23 23 23 23 23 22 21 21 20 20 20 20 20 20 20 21 21 21 21 20 20 20 20 21 21 20 20 20 20 20 20 20 19 18 18 17 18 18 17 17 17 17 17 16 16 16 16 16 16 16 16 16 16 17 17 16 14 14 15 16 15 15 15 15 15 15 16 16 16 16 16 16
25 25 25 25 25 25 25 24 24 24 24 23 23 23 23 23 23 22 21 20 20 20 20 20 20 20 20 20 21 21 21 20 20 20 20 21 21 20 20 20 20 20 20 19 19 18 18 18 17 17 17 17 17 17 17 17 16 16 16 16 16 16 16 16 16 16 16 17 16 14 13 14 15 15 15 15 15 15 15 15 16 16 16 16 16
25 25 25 25 25 25 25 24 24 24 23 23 23 23 23 23 23 22 21 20 20 20 20 20 20 20 20 20 20 20 20 20 20 20 20 20 20 20 20 20 20 19 19 19 18 18 18 17 17 17 17 17 17 17 17 16 16 16 16 16 16 16 16 15 15 15 16 16 15 14 13 14 14 14 14 14 14 14 15 15 15 15 15 15 15
25 25 25 25 25 25 24 24 24 23 23 23 23 23 23 23 22 21 20 20 20 20 20 19 19 20 20 20 20 20 20 20 20 20 20 20 20 19 19 19 19 19 19 19 18 17 17 17 17 17 17 17 17 17 16 16 16 16 16 16 16 16 15 14 13 14 14 15 15 14 13 14 14 14 14 14 14 14 14 15 15 15 15 15 15
25 25 25 25 24 24 24 24 24 24 23 23 23 23 23 23 22 21 20 20 19 19 19 19 19 20 20 19 19 19 20 20 20 20 20 20 20 19 19 19 19 19 19 18 17 17 16 16 16 16 16 16 16 16 16 16 16 16 16 15 15 15 14 13 13 13 13 14 14 14 14 14 14 14 14 14 13 13 14 14 14 15 15 14 14
25 25 25 24 24 24 24 25 24 24 24 24 24 24 23 23 22 21 20 19 19 19 19 18 19 19 19 19 18 19 20 20 19 20 20 19 19 19 19 18 18 18 18 18 16 16 16 16 16 16 16 16 16 16 16 16 16 16 15 15 15 14 14 14 13 13 13 14 14 14 14 14 14 14 14 13 12 13 14 14 14 14 14 14 14
Height
845 846 846 847 847 847 847 848 848 849 849 849 849 849 849 848 848 848 848 848 847 848 848 848 847 847 847 846 846 846 846 847 846 847 848 848 848 849 849 849 849 849 849 850 850 850 850 851 852 854 855 857 858 858 858 858 859 859 860 861 862 863 864 865 866 866 867 868 868 869 870 871 871 872 872 872 873 873 874 874 875 875 875 875 875
845 845 845 846 846 846 847 847 847 848 848 848 848 848 848 848 848 848 848 847 847 847 847 847 847 846 847 846 846 846 846 846 846 846 847 848 848 848 848 848 848 848 849 849 850 850 850 851 852 854 855 856 857 857 858 858 859 859 861 862 863 864 864 865 865 866 867 867 868 869 870 870 871 871 872 872 872 873 873 874 874 874 875 875 875
844 844 844 845 845 845 846 846 846 847 847 848 848 848 848 848 848 848 847 847 847 847 847 846 846 847 847 846 846 846 846 846 846 846 846 847 848 848 848 848 848 848 848 849 849 849 850 851 851 853 854 855 856 856 857 858 859 859 861 862 862 863 863 864 865 866 867 867 868 869 869 870 870 871 871 871 872 872 873 873 873 874 874 874 874
843 843 843 844 844 845 845 845 846 846 847 847 848 848 848 848 847 847 847 846 846 846 846 846 846 847 846 846 846 846 846 846 845 845 845 846 847 848 848 848 848 848 848 849 849 849 850 850 851 852 853 854 855 855 856 857 858 859 860 860 861 862 862 863 864 865 866 867 868 868 869 869 869 870 870 870 871 871 872 872 873 873 873 873 873
842 842 843 843 844 844 844 844 845 846 847 847 847 848 847 847 847 847 847 846 846 846 846 846 846 846 846 846 846 846 846 845 845 844 844 845 847 848 848 848 848 848 848 848 849 849 850 850 851 852 852 853 854 854 855 856 857 858 859 859 860 861 862 862 863 864 865 866 867 867 868 869 869 869 869 870 870 870 871 871 872 872 872 872 873
841 841 842 843 843 843 844 844 845 845 846 846 847 847 846 846 846 846 846 846 846 846 846 846 846 846 846 846 846 846 845 845 845 844 844 845 846 847 848 848 848 848 848 848 849 849 849 850 850 851 851 852 853 853 854 855 856 857 858 858 859 860 861 862 862 863 864 864 865 866 867 867 868 868 869 869 869 870 870 870 871 871 871 872 872
840 840 841 842 842 843 843 844 844 845 845 845 846 846 845 845 845 845 845 845 845 846 846 846 846 846 846 846 846 846 846 845 845 845 845 846 847 847 848 848 848 848 848 848 849 849 849 850 850 851 851 851 852 852 853 854 855 856 857 858 858 859 860 861 861 862 862 863 864 864 865 866 867 867 867 868 868 868 869 869 869 870 870 870 871
838 840 840 841 841 842 843 843 844 844 844 845 845 845 845 845 845 845 845 845 845 845 845 845 845 846 846 846 846 846 846 846 846 846 846 846 847 848 848 848 848 848 848 848 849 849 849 849 850 850 850 851 851 852 852 853 854 855 856 857 858 858 859 859 860 861 861 862 862 863 863 864 865 865 866 866 866 867 867 868 868 868 869 869 869
837 839 840 840 841 841 842 842 843 843 844 844 844 844 844 844 844 844 844 844 844 845 845 845 845 846 845 845 845 845 846 846 846 846 846 847 848 848 848 848 848 848 848 849 849 849 849 849 849 850 850 850 851 852 852 852 853 853 854 855 856 857 857 858 859 859 860 861 861 862 862 862 863 863 864 864 865 865 865 866 866 867 867 868 868
837 838 839 840 840 841 841 842 842 842 843 843 843 843 843 843 843 843 843 843 844 844 844 845 845 845 845 845 845 845 845 846 846 846 847 848 848 848 848 848 848 848 849 849 849 849 849 849 849 849 849 850 850 851 852 852 852 852 853 853 854 855 856 857 857 858 859 859 860 860 861 861 861 862 862 862 863 863 863 864 864 865 865 866 866
835 837 838 839 839 840 840 840 841 841 841 842 842 842 842 842 842 842 842 842 843 843 844 844 844 844 844 845 845 845 845 845 846 846 847 847 848 848 848 848 848 848 849 849 849 849 849 849 849 849 849 849 850 851 851 851 851 851 852 852 853 853 854 855 856 856 857 858 858 859 859 859 860 860 860 861 861 861 861 862 862 863 863 864 864
834 835 836 837 838 838 839 839 840 840 840 840 841 841 841 841 841 841 841 842 842 842 843 843 843 844 844 844 845 845 845 845 845 846 846 846 847 848 848 849 848 848 849 849 849 849 849 849 849 849 849 849 850 850 851 851 851 851 851 852 852 852 853 854 854 854 855 856 857 857 858 858 858 858 859 859 860 860 860 861 861 861 861 862 862
833 834 835 836 836 837 837 838 838 838 839 839 840 840 840 840 840 841 841 841 842 842 842 843 843 843 843 844 843 844 844 845 845 845 845 846 846 848 848 848 848 848 849 849 849 849 849 849 849 849 849 849 850 850 850 851 851 851 851 851 851 852 852 853 853 853 854 854 855 856 856 856 857 857 858 859 859 860 860 860 860 860 860 860 860
831 832 834 834 835 835 836 836 837 837 838 838 838 839 839 839 839 840 841 841 842 842 842 843 843 843 842 842 843 843 843 843 844 845 845 845 846 848 848 848 848 848 849 849 849 849 849 849 849 849 850 850 850 850 850 850 850 851 851 851 851 851 852 852 852 852 852 853 853 854 854 855 855 856 857 857 857 858 858 858 858 858 858 858 858
830 831 832 833 834 834 834 835 835 836 836 837 837 837 838 838 839 839 840 841 842 842 842 842 843 842 842 843 844 844 844 843 843 844 845 845 846 847 848 848 848 848 848 849 849 849 849 849 849 849 850 850 850 850 850 850 851 851 851 851 851 851 851 851 851 852 852 852 852 852 853 853 854 854 854 854 855 856 856 856 856 856 856 856 856
828 829 830 831 832 832 833 833 834 834 835 835 836 836 837 838 838 839 840 840 841 842 842 842 843 842 843 845 845 846 848 846 843 844 844 845 847 847 848 848 848 848 849 849 849 849 850 849 849 849 849 849 850 850 850 851 851 851 851 851 850 850 850 850 851 851 851 851 851 851 851 852 852 852 853 853 853 853 854 854 854 854 854 854 855
827 828 829 829 830 831 831 831 832 833 833 834 835 836 837 838 838 839 840 841 841 841 842 842 842 842 843 844 846 848 849 846 844 845 845 845 847 847 848 848 848 848 848 849 849 849 849 849 849 849 849 849 849 850 850 851 851 851 850 850 850 850 850 850 850 850 851 851 850 850 850 850 851 851 851 851 851 851 852 852 852 852 852 853 853
825 826 827 828 828 829 829 830 830 831 832 833 835 836 837 837 838 839 840 841 841 841 841 842 842 842 842 842 844 845 845 844 846 847 846 846 847 848 848 848 848 848 848 848 848 849 849 849 849 849 849 849 850 850 850 850 850 850 850 850 850 850 850 850 850 850 850 850 850 850 849 849 849 850 850 850 850 850 850 850 850 850 851 851 852
823 824 825 826 826 827 827 828 829 830 832 833 834 835 836 837 838 839 839 840 840 840 841 841 841 842 842 842 842 842 842 843 845 847 848 848 848 848 849 848 848 848 848 848 848 849 849 849 849 849 849 849 849 850 850 850 850 850 850 850 850 850 850 850 850 850 850 849 849 849 849 849 849 849 849 849 849 849 849 848 848 848 849 849 850
822 822 823 824 824 825 826 827 829 830 831 832 833 834 836 836 837 838 839 839 839 839 840 840 841 841 841 841 841 841 842 842 843 844 847 849 849 848 848 848 848 848 848 848 848 849 849 848 848 848 848 849 849 849 849 849 849 850 850 850 850 850 850 849 849 849 849 849 849 849 848 848 848 848 848 848 848 848 848 847 847 847 847 847 848
820 821 821 822 822 823 825 826 828 829 830 831 832 833 834 835 836 837 837 838 838 839 839 839 840 840 840 841 841 841 842 842 843 843 844 847 849 848 847 848 849 848 848 848 849 849 849 848 848 848 848 848 848 848 848 849 849 849 849 850 850 850 849 849 849 849 849 848 848 848 848 848 847 847 847 847 847 847 847 846 846 846 846 846 846
818 818 819 819 821 822 824 825 827 828 829 830 831 832 833 834 835 835 836 836 837 838 838 839 839 839 840 840 840 840 841 841 842 842 843 845 847 847 846 847 848 848 848 848 848 848 849 848 848 847 847 847 847 847 847 848 848 848 849 849 849 849 849 849 849 848 848 848 847 847 847 847 847 846 846 846 846 846 846 845 845 845 845 845 845
815 816 817 818 819 821 822 824 826 827 828 829 830 830 831 832 833 834 834 835 835 836 837 838 838 838 839 839 840 840 840 840 840 841 842 842 845 846 845 845 846 846 846 846 847 848 848 848 847 847 846 846 846 846 846 847 847 847 848 848 849 849 849 848 848 848 848 847 847 846 846 846 846 846 846 845 845 845 845 845 845 844 844 844 844
813 813 815 816 818 819 821 823 824 825 826 827 828 829 830 831 831 832 833 833 834 835 836 836 837 837 838 838 839 839 839 839 839 840 840 841 842 844 844 844 845 845 845 845 846 846 847 846 846 846 845 845 845 845 845 846 846 847 847 847 848 848 848 848 847 847 847 847 846 846 845 845 845 845 845 845 844 844 844 844 844 844 843 843 843
809 810 812 814 816 817 819 820 821 823 824 825 826 827 828 829 830 831 831 832 833 834 834 835 835 836 837 837 838 838 838 838 838 839 839 839 840 842 843 843 843 844 844 844 845 845 845 845 845 845 844 844 844 844 845 845 845 846 846 846 846 846 847 847 846 846 846 846 846 845 845 844 844 844 844 844 844 843 843 843 843 843 842 842 842
805 807 809 811 813 815 817 818 819 821 822 823 824 826 827 827 829 830 830 831 832 833 833 833 834 835 835 836 836 837 837 837 837 837 838 838 838 839 841 842 842 843 843 844 844 844 845 845 845 844 844 843 843 843 843 844 844 845 845 845 845 845 845 845 845 845 845 845 844 844 844 843 843 843 843 843 842 842 842 842 842 842 841 841 841
803 805 807 809 811 813 815 816 817 819 820 821 822 824 825 826 827 828 829 830 830 831 832 832 833 834 834 835 835 835 835 835 835 836 836 836 837 838 839 841 843 843 843 843 843 843 843 844 844 844 843 842 842 842 842 843 844 844 844 844 844 844 844 844 844 844 844 844 843 843 842 842 842 841 841 841 841 841 841 840 840 840 840 840 840
801 803 805 807 809 811 812 814 815 816 818 819 821 822 823 824 825 826 827 828 829 830 831 831 832 833 833 833 834 834 834 834 834 835 835 836 836 837 837 838 841 843 844 844 843 842 842 842 842 842 842 842 841 842 842 842 843 843 843 843 843 843 843 843 842 842 842 842 842 841 841 840 840 840 839 839 839 839 839 839 838 838 838 838 838
799 800 803 804 806 808 810 811 813 814 816 817 819 820 821 822 823 825 826 827 828 829 829 830 831 832 832 832 833 833 833 833 834 834 835 835 835 836 836 836 838 840 842 843 842 840 840 841 841 841 841 841 841 841 841 842 842 843 842 842 841 841 841 841 840 840 840 840 840 840 839 839 838 838 838 837 837 836 836 836 836 836 836 836 836
796 798 800 802 804 806 807 809 810 812 814 815 817 818 819 820 821 823 824 825 826 827 828 829 830 831 831 831 831 832 832 833 833 834 834 834 834 834 835 835 836 836 838 840 840 838 838 839 839 840 840 840 840 840 841 841 841 841 841 841 840 840 839 839 839 838 838 838 838 837 837 837 837 836 836 835 834 834 834 834 834 834 834 834 833
793 795 797 799 801 803 804 806 808 810 812 813 815 816 817 818 819 820 821 823 824 825 826 827 828 829 829 829 830 830 831 831 832 833 833 833 833 833 834 835 835 835 835 837 838 837 837 838 838 839 839 840 840 840 840 840 840 840 839 839 839 838 838 837 837 836 836 836 835 835 835 835 835 835 834 834 833 832 832 832 831 831 831 831 831
791 792 794 796 797 799 801 803 805 807 809 810 812 813 814 815 816 817 819 820 821 822 823 825 825 826 826 827 828 828 830 830 831 832 832 832 833 833 834 834 835 835 835 835 836 836 836 837 837 837 838 838 839 839 839 839 839 839 838 837 837 836 836 835 835 834 834 834 833 833 832 832 832 832 832 831 831 831 830 830 829 829 829 828 828
787 789 791 792 794 796 798 800 802 803 805 807 809 810 811 813 814 815 816 817 818 819 820 822 822 823 824 824 826 827 828 829 830 830 831 831 832 833 834 834 834 835 834 834 835 835 835 836 836 836 837 837 837 837 838 837 837 837 837 836 836 835 835 834 833 833 832 832 831 831 830 830 830 829 829 829 829 828 828 827 827 827 826 826 825
784 785 787 789 791 793 795 797 798 800 801 803 805 807 808 810 811 812 813 814 815 816 817 818 818 820 821 822 824 826 827 828 828 829 830 831 831 832 832 833 833 834 833 834 834 834 834 834 835 835 835 835 835 835 835 835 835 835 835 835 834 834 833 832 831 830 830 830 829 829 828 828 827 827 827 826 826 825 825 824 824 824 823 823 823
780 782 784 786 788 790 791 793 794 796 798 799 801 803 804 806 807 808 810 811 812 813 813 813 815 817 819 820 822 824 825 826 827 828 829 830 830 831 831 831 832 832 832 832 833 833 834 833 834 834 833 833 833 832 833 833 832 832 832 832 832 832 831 830 829 828 828 828 827 827 826 825 825 824 824 823 822 822 821 821 821 820 820 820 820
776 778 781 783 785 786 787 789 790 792 794 796 798 799 800 802 803 805 806 807 808 809 809 810 812 815 817 818 819 822 824 824 826 827 828 829 829 830 830 830 830 831 831 831 832 832 832 832 832 832 832 831 831 830 831 830 830 830 830 830 830 829 829 828 827 826 826 825 825 824 824 823 822 822 821 820 819 819 818 818 817 817 816 816 816
773 775 777 779 781 782 782 784 786 788 790 792 793 795 797 798 800 801 803 804 805 806 807 808 811 813 815 816 817 820 822 823 824 825 826 828 828 829 829 829 829 830 830 830 831 831 831 831 831 831 830 830 829 829 829 829 828 828 828 828 828 827 827 826 825 824 824 823 823 822 822 821 821 820 819 818 817 817 816 815 815 814 813 812 812
769 771 773 775 776 777 778 780 782 784 786 788 789 791 793 795 797 800 801 802 803 803 805 807 809 811 812 814 816 818 820 821 822 824 825 826 827 827 828 828 828 829 829 829 830 830 830 830 830 830 829 828 828 827 827 827 827 826 826 826 825 825 825 824 823 823 822 821 821 820 820 819 819 818 817 816 815 814 813 812 812 810 810 809 808
765 767 768 770 771 773 775 777 779 780 782 785 786 788 791 792 795 797 798 799 800 801 803 805 806 808 810 812 813 815 817 819 820 822 823 824 825 825 826 826 827 827 828 828 828 829 829 829 828 828 827 827 826 825 824 825 825 824 823 823 822 822 823 822 821 821 820 820 819 818 818 817 816 815 814 813 812 811 810 809 808 807 806 805 805
760 762 763 765 767 770 772 774 776 778 780 782 783 785 788 789 791 792 794 796 797 798 800 802 803 806 807 809 811 813 815 816 818 820 821 822 822 823 824 825 825 826 826 826 826 827 827 827 827 826 826 825 823 822 822 822 822 821 821 821 820 820 820 820 819 819 818 817 816 816 815 814 813 812 812 811 810 809 808 806 805 804 803 802 802
755 757 759 762 765 767 770 772 774 775 776 777 779 781 783 785 786 788 791 793 794 795 797 799 801 803 805 807 808 810 812 814 816 817 818 819 820 820 822 823 824 824 824 824 825 825 825 825 825 824 824 823 821 820 820 820 820 819 819 819 818 818 818 817 817 817 816 814 814 813 812 811 810 809 809 808 807 806 804 803 802 801 800 799 799
751 754 756 759 762 764 767 768 771 772 772 773 775 777 778 780 783 786 789 791 792 793 795 796 798 800 802 804 805 807 810 812 813 815 816 817 817 818 819 820 822 822 822 822 823 823 823 823 822 822 821 820 818 818 818 817 818 817 817 816 816 815 815 814 814 814 813 812 811 810 809 809 807 807 806 805 804 803 802 801 800 798 797 797 796
748 750 754 756 759 761 763 765 766 767 768 770 771 773 775 778 782 784 786 786 787 789 792 793 795 797 799 801 803 806 808 810 811 812 814 815 815 816 817 818 819 820 820 820 820 820 820 819 819 819 818 816 815 815 815 815 815 815 814 814 813 813 813 812 811 811 810 809 809 808 806 805 804 803 803 803 802 801 800 798 797 796 795 794 794
745 747 750 753 755 757 760 761 762 763 764 765 767 769 773 776 779 780 781 782 783 786 788 790 793 795 796 799 801 804 806 808 809 810 811 813 813 814 815 816 817 817 817 817 817 817 817 816 816 815 814 813 812 813 813 813 812 812 812 811 811 810 810 810 809 808 807 807 806 804 802 802 802 801 800 800 799 798 797 795 794 794 793 792 791
742 744 747 749 751 754 756 757 758 759 760 761 764 767 770 772 775 776 777 779 782 784 785 787 790 792 794 797 799 801 804 805 807 808 809 811 812 812 813 814 814 814 814 814 815 815 814 814 813 812 811 811 811 810 811 810 810 810 809 809 808 808 808 808 807 805 805 804 803 801 799 799 799 798 797 796 796 795 794 792 792 791 790 789 789
739 741 744 746 748 750 751 752 754 755 757 759 761 765 767 769 772 773 775 777 779 781 782 784 788 790 792 794 796 798 801 802 804 806 807 809 810 810 811 811 812 812 812 812 813 813 813 813 812 810 810 810 809 808 809 809 808 808 807 807 806 806 806 805 804 803 802 802 801 799 797 796 796 795 793 793 793 792 791 791 790 789 788 787 786
736 738 741 743 745 746 747 749 751 753 754 756 759 762 764 767 769 771 773 774 776 778 780 782 784 786 789 792 794 796 798 800 802 804 806 807 808 809 810 810 810 811 811 811 812 812 812 811 810 809 808 808 808 807 807 807 806 806 805 805 805 804 803 802 801 801 800 800 799 798 796 795 795 793 792 792 792 791 790 789 788 787 786 784 783
733 735 738 739 740 742 744 747 749 750 752 754 757 759 762 765 767 769 771 772 774 775 777 779 781 783 786 790 792 794 795 798 801 803 805 806 807 808 808 808 809 809 810 811 811 811 810 809 808 807 807 807 806 805 805 805 804 804 804 803 803 802 801 800 799 798 798 798 797 796 795 793 793 793 791 790 790 788 787 786 785 783 782 780 779
729 731 733 734 736 739 741 744 745 747 749 751 754 757 759 762 764 766 768 770 771 773 774 776 779 781 784 787 789 791 794 797 799 802 804 805 805 806 806 806 807 807 808 809 809 809 808 807 806 806 806 805 805 804 804 804 803 803 802 802 801 800 800 799 798 797 796 795 795 794 793 792 792 790 788 787 786 784 783 781 780 779 777 776 775
724 727 729 731 733 736 738 740 741 744 746 749 752 754 756 758 759 761 764 766 768 771 772 774 777 780 783 785 787 790 793 795 798 800 802 803 803 803 804 804 805 805 806 806 806 806 806 805 805 805 804 804 804 804 803 803 802 801 800 799 799 799 798 798 797 795 794 793 793 793 791 790 789 788 785 782 780 780 779 777 776 774 773 772 770
721 723 726 728 731 732 735 737 739 742 744 747 749 751 753 754 756 758 760 763 766 768 770 773 776 779 781 784 787 790 791 793 796 798 799 800 800 801 802 803 803 803 804 805 805 805 805 804 804 803 803 803 803 802 801 801 800 799 798 798 798 797 797 796 795 794 792 791 791 791 789 787 786 784 782 780 777 775 774 773 772 770 769 767 765
Wind_Speed
10 10 11 11 9 7 8 7 7 7 7 7 7 5 5 6 5 4 4 2 2 0 1 2 4 2 3 3 2 2 3 4 6 7 7 7 7 6 5 6 8 10 12 12 13 14 15 16 15 14 13 13 13 13 14 15 15 15 14 14 13 13 13 13 13 13 13 13 12 12 12 12 11 10 11 10 10 10 10 9 9 8 8 7 7
10 10 11 12 10 9 8 8 7 8 8 8 8 7 6 7 6 6 5 4 3 1 2 3 5 5 3 3 3 2 2 2 3 5 7 7 6 6 5 5 6 8 11 12 12 14 15 15 16 15 14 14 14 14 14 14 14 15 14 13 13 12 13 13 14 14 13 13 13 12 12 12 11 11 12 11 11 11 11 10 10 10 9 8 8
10 10 11 11 12 11 9 9 8 8 10 10 10 10 9 9 8 6 5 5 4 2 2 2 4 4 2 2 3 3 2 2 1 3 7 8 7 7 6 6 6 6 9 11 12 13 14 14 15 15 16 15 15 15 14 14 14 14 14 13 13 13 13 13 13 14 13 13 13 13 13 13 11 11 12 12 12 12 12 12 11 11 11 10 9
11 11 11 12 13 12 10 11 10 10 11 12 11 10 10 9 8 6 5 6 6 2 1 1 3 2 3 1 2 2 3 4 3 3 6 9 10 9 8 8 7 6 6 8 10 12 13 13 14 14 15 16 16 16 15 15 15 15 15 15 14 14 14 14 13 13 13 13 13 13 13 13 12 12 11 12 12 13 13 13 12 12 12 11 11
12 12 13 13 14 12 11 11 10 11 12 12 11 10 10 9 7 6 6 7 6 2 1 1 2 2 6 3 2 1 4 5 3 1 5 9 12 10 9 8 8 8 7 6 7 9 11 12 14 13 13 15 16 17 16 15 16 16 16 16 14 14 14 14 14 14 13 13 13 13 13 13 13 12 12 11 12 12 13 14 13 13 13 13 12
14 14 14 14 13 13 12 12 11 12 13 12 11 10 9 8 7 6 6 7 7 3 1 1 2 2 4 1 1 2 5 6 3 5 8 11 13 10 9 9 8 9 8 7 6 6 8 9 10 11 13 14 15 17 17 16 17 17 17 17 15 15 14 14 15 15 15 15 14 14 14 14 14 13 13 13 12 12 13 13 13 13 14 13 13
16 15 15 14 14 13 13 12 12 12 12 12 11 10 9 8 8 7 6 8 8 4 1 1 4 2 1 1 1 1 4 7 5 6 10 12 11 10 9 9 9 8 8 8 7 6 6 7 7 9 11 14 15 16 16 15 16 17 17 18 17 16 16 16 15 16 16 16 15 15 15 15 15 14 14 14 14 14 14 14 14 14 14 14 14
18 16 16 16 15 14 13 12 12 12 11 11 11 11 10 9 8 7 7 9 8 4 1 2 6 4 1 2 2 1 2 5 6 7 11 12 11 11 10 10 9 9 8 8 8 7 6 6 7 8 9 11 13 14 14 13 15 17 18 18 17 16 17 18 17 17 17 16 16 16 17 17 16 16 15 16 16 16 16 15 15 15 15 15 15
20 18 17 17 16 14 12 11 11 11 10 11 11 11 10 9 8 7 7 9 7 5 2 3 5 4 2 2 2 1 1 3 6 8 11 12 12 12 12 11 10 9 8 8 8 8 7 7 7 8 8 10 11 12 12 12 13 16 17 18 17 16 17 18 19 19 19 18 18 17 17 17 17 17 17 17 17 17 17 17 17 17 17 16 16
20 19 17 17 16 14 12 11 11 10 10 10 10 10 10 9 8 7 8 9 7 5 2 2 3 2 1 3 3 2 2 3 4 9 10 10 11 13 13 13 11 10 10 9 8 7 7 7 7 8 10 10 9 9 10 11 12 14 16 16 16 16 16 16 17 18 19 19 19 18 19 19 18 18 18 18 18 18 18 18 18 18 18 18 18
20 18 16 15 15 14 13 12 11 11 10 11 11 11 10 9 8 8 10 9 6 4 3 3 3 1 1 3 4 3 3 4 5 6 7 8 12 13 14 14 13 12 11 10 9 8 6 5 6 8 10 10 9 8 9 10 11 12 13 14 15 16 15 15 15 16 17 18 19 19 19 20 19 19 19 19 19 19 19 19 19 19 19 19 19
19 17 16 15 15 15 14 13 12 11 11 11 11 11 10 9 9 10 11 9 7 5 4 4 2 2 3 4 5 4 3 2 4 5 3 6 14 15 14 14 13 13 11 10 9 7 5 4 4 6 8 8 8 8 8 8 10 11 11 12 13 13 14 14 14 15 15 17 18 18 19 19 20 21 21 20 20 19 20 20 20 20 20 20 20
18 18 16 15 15 15 14 14 13 13 11 10 10 10 9 9 10 11 10 8 8 7 6 5 4 3 4 5 4 4 4 2 2 3 3 7 17 17 15 16 15 13 12 9 8 6 5 5 5 5 5 5 5 6 7 8 9 10 10 10 11 11 11 11 12 13 14 15 16 16 17 18 19 20 20 21 22 21 21 21 21 21 21 22 22
19 18 17 16 15 15 15 15 15 14 11 9 9 10 10 12 12 11 9 8 8 7 7 7 4 3 3 1 1 2 4 2 1 3 3 11 19 18 17 17 16 14 12 10 8 7 6 5 6 6 6 4 3 4 4 5 7 7 8 9 9 9 9 10 10 11 12 13 13 15 15 16 17 17 18 19 20 20 21 22 22 23 22 22 22
20 19 18 17 15 15 15 15 15 14 13 11 12 12 13 14 12 10 9 9 8 7 7 8 6 5 4 2 1 0 2 3 1 2 4 16 20 19 19 18 17 14 12 11 9 8 6 4 6 6 5 4 3 3 3 4 4 4 5 5 7 8 9 9 9 9 10 10 11 12 13 14 14 15 16 17 18 18 19 19 20 21 22 22 22
20 19 18 18 16 15 15 15 16 15 14 14 14 15 15 14 12 10 10 9 8 7 9 9 8 5 3 2 1 2 1 2 2 3 8 20 21 19 19 19 19 15 13 11 9 7 6 5 5 5 5 4 3 3 3 3 2 2 2 2 3 5 7 8 7 7 8 8 9 9 10 11 11 11 13 14 15 15 16 17 17 18 19 20 20
20 19 19 18 17 16 15 16 17 16 15 15 16 16 16 14 12 11 10 9 7 7 9 9 8 7 4 3 1 1 2 3 1 4 10 21 21 19 20 20 19 16 14 12 9 8 6 6 6 4 4 6 5 3 2 1 1 1 1 2 1 2 4 5 6 7 7 8 9 9 9 9 9 10 10 11 12 12 13 14 15 16 17 17 18
20 20 19 18 17 17 16 16 17 17 17 17 17 15 14 13 12 11 10 9 7 8 10 10 8 6 6 6 3 2 3 2 2 3 5 14 18 19 20 20 18 16 15 12 10 10 8 7 7 4 4 5 5 3 2 2 1 2 2 2 2 2 1 2 3 4 5 6 7 7 7 7 8 8 9 10 10 11 12 13 13 14 14 15 15
21 20 19 18 18 18 17 17 17 18 19 19 17 14 13 14 14 13 12 11 9 9 12 12 8 6 6 8 5 5 6 3 2 3 3 5 12 16 16 18 18 15 14 14 12 11 10 10 7 5 4 4 3 2 2 2 1 1 1 2 3 3 2 2 2 2 3 4 5 5 5 5 5 5 6 7 8 9 11 12 12 13 13 13 13
22 20 19 19 19 20 19 18 18 20 21 20 17 15 15 15 14 14 14 12 10 11 14 14 10 8 8 9 6 5 5 3 3 4 4 3 6 9 10 13 17 16 15 14 13 11 10 11 9 7 6 5 3 2 2 3 2 2 2 3 4 4 4 3 3 3 3 4 5 6 7 7 6 6 6 6 6 7 8 9 11 12 12 13 13
23 21 21 21 21 22 21 20 20 20 20 19 18 17 17 17 15 15 15 13 11 11 14 14 12 10 10 9 7 6 5 4 4 4 5 3 2 4 6 9 12 16 16 15 13 11 10 11 10 8 7 7 5 4 3 4 4 4 4 4 4 5 4 4 4 4 4 5 6 8 9 9 9 8 8 8 8 8 8 8 9 10 11 11 12
23 22 22 23 23 23 22 21 20 20 20 19 18 18 19 18 18 17 16 14 13 12 13 13 11 12 12 10 9 9 6 4 5 5 4 4 3 3 6 8 9 14 18 17 15 13 12 12 11 10 9 9 8 7 6 6 6 5 5 5 6 6 6 6 6 7 7 7 8 10 10 10 10 10 10 10 10 10 10 9 9 9 10 10 11
25 24 24 24 24 23 22 22 21 20 20 20 20 19 18 18 20 19 17 16 15 14 14 12 12 12 12 12 11 11 10 7 7 8 5 4 5 3 5 8 9 13 18 19 18 16 15 14 12 11 10 11 11 10 9 8 8 7 7 7 8 8 8 8 8 9 10 10 11 12 11 10 10 10 11 11 11 11 12 12 11 11 11 11 11
27 26 26 26 25 24 23 24 24 21 21 21 21 20 19 19 22 21 18 17 16 16 16 15 14 14 13 13 13 13 13 11 11 12 10 9 9 7 6 7 7 7 13 19 20 19 17 15 13 11 11 12 13 12 11 10 10 9 9 9 9 9 10 10 11 11 12 12 12 12 11 10 10 11 11 11 12 12 13 13 13 13 13 12 11
30 29 29 28 27 26 25 26 26 24 22 21 21 20 20 21 23 22 18 17 17 17 17 17 17 16 14 13 12 13 13 12 13 14 14 14 12 9 8 7 5 6 9 15 19 20 19 17 13 12 12 13 15 15 14 13 12 11 11 11 11 11 11 12 12 13 13 14 14 13 12 11 11 12 12 13 13 13 13 14 15 15 15 14 13
33 32 31 30 29 28 28 28 27 26 25 23 21 21 21 22 23 21 19 17 17 17 17 17 19 18 16 14 12 11 11 12 14 14 15 17 15 12 10 5 4 6 6 9 14 15 16 17 15 13 13 14 16 17 17 16 14 12 12 13 13 13 13 13 14 14 14 15 16 15 14 13 13 14 15 15 15 15 15 15 16 16 16 16 15
35 34 32 32 31 30 30 29 28 28 27 25 24 22 22 24 25 22 19 18 18 18 17 18 20 20 18 16 13 11 10 11 13 14 16 17 15 15 13 7 2 3 2 5 9 11 12 12 11 11 11 12 14 17 18 17 15 13 14 15 15 15 15 15 15 16 15 15 16 16 16 16 16 17 17 17 18 18 18 18 18 18 18 18 18
36 35 34 34 33 32 31 30 29 30 29 27 26 24 22 24 26 24 21 20 20 20 20 19 21 21 19 17 15 14 13 12 13 14 16 15 14 14 15 12 7 2 1 2 5 8 9 9 7 6 6 7 10 15 17 17 15 14 14 16 17 17 17 17 16 16 17 16 16 16 17 18 18 19 19 19 19 20 20 20 21 21 21 21 20
36 36 35 35 34 33 33 30 30 32 31 29 28 25 23 24 26 26 23 22 22 22 21 21 21 21 20 18 17 16 16 14 13 14 15 14 14 14 13 14 11 6 3 2 4 6 7 7 6 4 3 3 4 10 15 16 15 14 15 17 18 18 17 17 17 17 17 17 17 17 17 18 19 19 20 20 20 21 21 22 23 23 22 22 21
37 37 36 35 35 35 34 32 31 32 32 31 29 27 25 24 25 25 24 24 24 24 22 21 22 22 21 20 18 18 18 17 16 16 15 14 15 15 13 13 12 10 7 5 4 6 8 8 7 5 4 2 2 5 10 12 12 13 14 16 18 19 19 18 17 17 18 18 19 19 19 19 19 20 20 20 20 20 21 21 22 22 22 21 21
38 37 36 36 36 36 35 34 33 33 33 32 31 30 28 26 25 25 25 26 26 25 23 22 22 22 23 22 20 20 20 19 17 16 15 15 15 15 14 13 12 11 11 8 3 5 8 7 7 7 6 6 6 6 7 9 11 12 13 14 15 17 19 20 20 20 20 21 21 22 21 21 21 20 20 20 20 20 20 21 21 22 22 22 22
38 38 37 37 38 38 37 36 35 35 35 34 33 32 30 28 27 26 27 28 28 27 26 24 23 23 25 25 22 21 21 20 18 16 15 16 16 15 14 13 11 9 10 10 6 6 9 8 8 8 8 8 9 9 10 10 11 12 12 13 14 15 17 19 21 21 21 22 22 23 23 22 22 22 22 21 21 20 20 21 21 22 23 24 24
39 39 38 38 39 39 39 38 37 37 37 37 35 35 33 31 30 29 28 29 29 29 28 27 26 26 27 27 24 22 20 19 18 17 17 16 16 16 14 13 12 10 10 11 9 9 11 11 10 10 8 8 10 10 11 12 12 12 12 14 16 17 18 19 20 21 22 22 23 23 23 23 23 23 22 22 22 21 21 21 22 23 24 24 25
40 40 39 39 39 40 40 40 39 38 38 38 37 37 36 34 33 32 31 31 31 30 30 30 30 29 29 28 26 23 20 18 18 18 17 16 16 17 16 14 13 12 12 13 12 11 12 13 12 11 10 10 11 10 11 13 14 13 14 15 16 18 18 18 19 20 21 22 23 23 22 22 22 23 23 23 22 22 22 23 23 24 24 25 25
41 41 40 39 39 40 41 41 40 40 39 39 39 39 38 36 35 35 34 34 33 33 33 33 32 30 30 30 28 25 22 19 19 18 18 17 16 17 17 15 14 13 12 14 15 14 14 15 14 13 12 11 11 11 11 12 15 16 16 16 16 17 17 18 19 19 20 21 22 22 21 22 22 23 23 23 23 23 23 24 24 25 26 26 26
41 41 40 40 40 40 41 41 41 41 40 40 40 40 40 39 38 37 36 36 36 36 36 35 33 31 30 30 29 26 24 23 22 20 19 18 17 16 16 15 14 13 13 14 16 16 16 15 14 14 13 12 12 12 11 13 15 16 16 17 17 17 17 18 19 20 20 20 21 21 21 20 21 22 22 23 23 24 25 26 26 26 26 26 27
41 41 40 40 41 42 42 42 42 42 41 41 41 41 41 40 39 38 37 37 36 37 37 35 32 31 31 30 29 26 24 25 23 21 19 17 16 15 15 15 15 14 13 14 16 17 18 17 16 15 14 13 14 13 12 13 15 16 16 17 17 18 18 17 18 19 19 19 20 20 20 19 19 20 21 23 24 26 27 27 26 26 26 26 27
40 40 41 41 42 43 43 42 42 42 42 42 42 42 41 40 39 38 37 37 37 37 36 34 32 32 31 30 28 26 25 24 22 20 19 17 16 16 16 16 16 15 16 16 16 17 19 19 18 17 16 15 15 15 14 13 14 16 17 17 17 18 17 17 17 17 17 17 17 17 17 18 19 20 22 24 25 26 27 26 26 26 26 26 26
40 40 41 42 43 43 42 41 41 42 42 42 41 41 39 38 38 38 38 38 37 36 34 33 32 32 31 30 28 26 24 23 22 21 19 18 18 18 18 17 16 16 17 18 19 18 18 19 19 18 17 16 15 16 16 14 14 16 17 18 18 17 15 16 17 17 16 16 16 17 18 19 21 22 22 23 23 24 24 24 25 25 25 25 25
41 41 42 42 42 41 41 41 40 40 40 40 40 39 38 38 38 39 40 39 38 35 33 33 32 31 31 30 29 26 25 23 23 22 20 19 18 18 17 16 16 17 19 20 20 19 18 18 18 17 17 17 17 17 17 15 14 16 15 16 17 17 15 15 17 18 18 18 18 19 20 21 22 22 23 24 24 24 25 25 26 26 26 27 27
41 41 41 40 39 39 39 39 38 38 38 39 40 39 39 39 39 39 40 40 38 35 33 32 31 30 30 30 29 28 27 26 24 22 20 19 18 18 17 15 15 17 18 18 18 17 16 16 17 17 16 18 20 19 17 15 15 15 14 13 15 17 16 16 18 19 20 19 19 19 20 21 22 23 24 25 24 23 23 23 24 25 26 27 27
41 40 38 37 37 37 37 37 37 37 38 39 40 41 42 41 40 38 39 40 39 35 32 31 29 29 29 28 28 28 27 25 24 21 20 20 19 18 16 15 15 16 15 15 16 16 16 16 18 17 15 18 22 19 17 17 16 15 14 14 15 17 16 16 17 20 21 18 16 18 22 24 24 23 23 23 21 19 19 19 19 20 20 20 21
39 38 36 36 37 37 37 37 37 38 40 40 41 42 42 41 39 38 39 40 39 36 32 31 30 29 27 26 26 25 24 24 22 20 20 19 18 17 16 15 16 17 16 16 17 18 18 18 19 19 18 20 22 19 17 18 17 16 16 16 16 16 14 13 13 17 20 18 15 19 24 24 22 22 22 21 20 18 19 20 19 18 19 19 19
37 36 35 36 37 37 37 38 38 39 41 42 43 42 41 40 39 39 40 40 38 35 32 31 31 30 27 25 24 23 24 24 22 20 20 19 17 17 16 15 16 18 18 20 21 22 22 21 22 22 21 21 20 19 19 19 18 17 17 15 15 14 15 13 13 15 20 21 19 20 22 23 22 23 23 22 21 20 20 20 20 19 20 21 20
36 35 35 36 36 36 38 38 39 40 41 41 41 40 39 40 40 41 40 37 35 34 32 32 32 30 28 26 25 25 25 25 23 22 20 19 18 17 17 17 17 18 19 22 23 23 23 22 22 23 22 20 19 20 19 18 18 17 15 15 15 15 15 15 15 19 22 23 22 21 22 23 23 22 23 23 20 18 17 17 18 19 20 20 19
34 34 35 36 36 37 38 39 39 40 40 39 38 38 39 39 39 41 39 35 34 34 32 32 32 30 29 28 27 27 27 27 26 23 20 19 19 19 19 18 19 19 20 22 22 22 21 20 21 23 22 20 19 19 17 17 18 18 17 17 16 15 15 16 19 22 21 20 21 19 17 20 24 23 24 21 17 15 15 16 19 21 22 22 22
35 35 35 36 37 38 38 38 37 37 37 36 35 36 37 37 37 39 38 34 32 32 31 32 33 32 31 29 29 30 29 28 26 22 20 19 19 19 19 19 19 20 21 22 22 21 20 20 20 21 19 17 17 18 17 18 18 17 15 15 15 15 17 18 20 22 20 19 19 13 10 17 22 20 19 17 15 17 20 22 25 26 26 27 27
35 35 36 37 38 38 37 36 35 34 33 33 32 33 33 34 36 38 36 32 30 31 31 32 33 33 31 30 30 31 29 27 23 20 18 18 17 18 19 20 20 21 21 20 20 20 20 19 18 17 15 13 14 14 15 14 13 11 11 13 15 17 17 17 17 19 19 19 20 15 11 14 15 14 16 19 20 22 24 26 27 26 25 25 24
35 36 37 38 38 37 36 35 34 32 30 29 29 29 30 31 34 36 35 32 30 31 32 32 33 32 31 31 32 30 27 24 21 18 17 16 17 18 19 19 20 21 20 19 19 19 16 13 11 10 8 8 8 7 8 9 10 11 13 15 18 18 15 12 12 15 18 19 19 14 11 11 13 15 20 23 21 20 21 23 22 21 21 23 23
36 37 37 35 34 35 36 36 35 32 29 27 26 25 27 29 33 36 36 32 29 29 29 30 31 31 30 30 29 26 23 22 20 17 15 15 17 18 18 19 20 21 20 20 19 16 11 9 8 7 7 7 8 8 10 11 11 12 14 15 14 14 12 10 10 12 15 17 15 11 11 15 17 18 21 21 18 17 18 20 21 24 25 27 28
35 35 34 33 32 33 34 34 32 29 26 24 23 24 25 28 32 34 34 32 29 28 28 29 30 31 29 26 23 22 22 20 17 15 13 15 17 18 17 18 19 21 22 20 17 14 11 11 10 11 13 13 14 14 14 12 10 10 10 8 7 7 8 9 11 10 9 10 12 13 15 18 18 18 19 16 11 12 18 23 26 28 30 30 30
Wind_Direction
207 204 202 203 203 213 218 211 198 184 174 162 159 164 172 170 173 201 227 280 318 342 87 38 28 25 195 177 179 159 126 161 190 202 185 167 164 159 166 178 185 189 191 195 198 202 202 199 198 194 195 196 197 198 198 198 197 197 199 199 199 199 200 200 201 202 201 201 202 205 209 214 216 217 220 216 214 218 221 225 226 229 234 237 244
206 207 208 204 201 213 214 196 193 192 180 172 175 179 184 189 200 224 245 272 266 198 36 30 64 85 137 155 186 176 95 128 182 218 207 188 179 163 159 156 169 189 194 200 200 203 207 205 203 198 197 198 199 203 203 203 203 203 204 204 205 204 205 205 206 209 208 208 209 210 215 221 222 223 227 224 222 222 222 226 229 232 236 238 244
206 205 208 205 204 211 206 190 191 192 183 182 185 191 201 207 213 227 246 244 212 183 16 49 96 85 83 116 156 155 98 68 83 248 226 205 196 178 167 152 153 178 191 202 204 206 209 209 209 204 201 201 201 205 207 207 207 208 207 208 211 210 211 212 213 214 214 216 216 216 219 224 226 225 227 227 228 228 226 226 229 232 236 237 240
203 199 198 199 200 201 199 196 197 191 185 189 192 200 209 211 217 218 211 200 183 177 348 124 132 50 357 4 161 113 68 39 25 279 236 209 200 186 176 160 150 159 170 192 205 210 212 211 212 208 206 208 206 206 208 210 211 209 208 209 213 215 214 215 217 218 219 221 222 222 222 226 228 229 229 227 229 231 230 229 229 232 236 238 241
199 194 191 191 193 196 199 199 197 189 187 193 199 205 208 213 220 208 196 196 188 188 344 159 166 345 331 293 206 80 37 21 23 165 184 187 193 189 179 165 151 154 156 170 192 208 217 220 217 210 210 216 214 211 211 213 215 214 212 211 214 218 217 218 220 222 224 224 227 227 227 228 230 233 235 234 233 233 232 232 232 234 237 241 244
201 197 192 190 192 198 202 199 195 190 190 198 207 210 213 220 217 201 201 207 199 194 55 141 183 335 328 281 191 15 40 43 65 143 154 171 185 186 181 172 159 159 160 163 174 191 210 223 224 217 217 222 221 219 217 217 220 222 220 215 216 219 219 220 220 222 224 224 227 230 231 232 231 234 237 238 240 238 236 235 236 238 240 243 247
208 205 199 197 197 201 205 204 200 198 200 206 213 218 221 222 215 206 203 205 202 203 15 194 191 161 350 303 293 338 65 74 88 135 152 164 177 177 175 173 165 164 164 163 169 180 194 207 218 221 221 225 228 227 224 223 225 228 227 221 219 220 221 224 224 225 226 225 226 229 232 233 233 233 236 238 241 242 242 241 240 241 243 246 248
215 211 206 206 205 207 211 211 208 208 211 215 221 225 227 222 214 212 206 207 207 202 55 161 187 179 204 291 283 241 110 103 101 126 152 161 169 169 165 162 163 169 169 168 170 177 187 194 204 214 223 228 229 230 230 230 232 234 232 228 225 225 224 227 231 232 232 232 231 231 233 235 236 235 235 238 240 242 245 246 246 247 248 249 250
219 216 214 214 212 213 215 214 214 218 222 224 227 227 228 223 216 220 214 212 205 184 139 129 173 186 179 241 248 192 165 133 119 128 154 162 161 159 151 144 149 158 164 170 173 178 188 196 203 209 219 227 227 231 233 233 236 235 233 232 231 230 228 229 233 235 236 238 238 237 237 238 238 236 235 236 238 241 244 246 247 249 250 251 252
220 220 220 218 215 215 215 218 223 228 231 228 227 224 223 222 222 219 206 203 191 182 197 175 186 202 176 218 231 218 272 257 159 137 145 161 157 148 140 136 135 138 142 150 162 174 187 201 209 206 211 222 225 228 232 235 237 234 232 234 235 236 234 232 234 237 237 237 239 241 241 241 242 239 237 238 238 240 243 245 247 248 249 251 251
220 221 221 216 214 215 216 222 228 231 230 227 225 221 218 219 220 207 194 193 191 196 218 196 195 222 186 204 218 233 254 260 222 164 134 156 161 149 142 142 138 135 133 134 142 152 163 185 207 207 210 216 218 222 229 234 236 235 235 239 241 241 241 239 238 240 241 239 240 243 246 246 245 245 243 243 242 243 244 246 248 249 251 252 252
221 222 221 215 213 216 218 222 227 227 226 228 226 220 219 219 211 196 188 189 193 191 179 174 203 233 215 223 234 241 240 256 225 183 104 152 167 159 153 151 146 142 137 132 132 132 137 152 176 194 204 210 213 217 223 227 231 235 238 241 246 247 247 246 244 246 246 244 242 245 249 250 248 249 249 249 249 249 250 251 252 253 254 256 256
223 223 220 217 214 215 219 221 225 227 229 233 225 218 219 208 192 185 186 194 195 181 177 194 229 229 219 234 245 234 233 263 172 137 76 158 169 164 162 159 153 149 144 137 130 122 126 140 146 156 176 193 206 216 227 231 230 234 238 239 245 248 250 249 249 251 252 249 246 247 250 252 252 252 253 253 254 255 257 259 259 259 260 260 260
224 223 219 217 215 216 221 221 223 225 228 228 218 214 205 189 181 183 190 201 195 180 192 211 211 193 173 187 280 250 250 272 124 84 90 165 173 171 169 164 160 157 152 145 133 119 118 138 152 147 147 158 185 219 229 223 218 223 231 236 239 242 247 250 251 252 253 251 249 248 248 250 253 254 255 256 256 257 259 261 263 263 262 262 263
222 222 220 219 219 221 222 220 222 223 224 222 211 202 191 182 181 183 186 192 192 190 203 206 183 146 104 68 7 292 306 334 30 31 151 170 177 178 175 168 166 165 161 153 136 123 117 132 166 165 156 157 172 206 199 183 191 198 211 231 239 241 243 246 251 253 255 255 253 252 251 250 251 253 256 257 258 259 261 263 263 262 261 262 264
221 221 221 221 221 222 221 220 222 221 224 219 200 187 183 182 182 183 183 185 195 204 205 205 191 165 116 67 48 78 3 317 19 41 162 169 168 172 175 171 169 169 167 159 142 131 119 119 156 171 185 193 187 194 191 183 187 177 194 253 252 249 247 245 249 250 253 255 255 258 258 259 261 262 262 261 261 261 263 265 265 264 262 262 265
221 220 221 223 221 221 221 221 221 220 220 209 189 181 184 185 185 188 191 190 192 193 195 202 200 192 174 144 79 52 233 232 63 68 158 170 165 164 171 171 169 172 172 167 155 149 137 126 137 153 196 206 196 195 211 241 311 307 297 318 315 276 258 253 255 256 259 262 266 271 273 274 277 277 274 272 272 270 269 268 267 267 265 265 266
220 220 222 224 222 220 218 216 217 214 207 195 184 181 184 187 190 191 194 196 192 182 187 196 192 189 194 192 198 179 174 174 115 83 147 172 171 168 169 169 171 176 178 178 170 165 162 151 144 150 191 205 202 206 216 229 304 321 302 312 330 329 298 267 264 267 276 281 285 289 289 290 286 283 280 278 279 276 275 275 273 272 271 269 269
220 221 223 225 222 218 212 209 208 203 194 189 185 183 182 187 192 191 192 193 188 177 182 192 189 180 189 192 182 149 148 146 140 128 115 171 180 178 174 171 174 182 185 183 178 173 173 170 166 168 184 195 209 236 235 222 255 278 283 308 312 318 315 300 297 298 303 306 310 310 309 310 306 301 296 290 286 279 277 279 279 280 280 279 278
220 221 221 222 219 213 206 202 201 194 189 188 191 189 186 190 193 193 193 192 189 179 179 190 195 183 179 184 178 158 160 162 151 142 128 148 194 195 191 181 179 184 187 186 184 182 180 180 181 185 192 196 208 245 264 262 269 260 277 304 313 321 320 317 323 324 324 324 323 321 318 316 315 315 313 309 305 297 291 288 286 287 287 286 285
219 221 220 217 212 207 202 199 198 194 191 191 197 202 198 196 197 194 193 194 193 182 176 185 195 189 184 193 195 188 188 188 182 159 131 137 201 214 197 186 184 186 187 188 191 193 189 188 193 199 203 206 211 229 257 267 272 276 284 289 303 315 312 314 326 326 326 325 324 322 317 312 311 312 312 312 311 309 307 303 299 298 295 293 290
216 218 217 211 206 204 201 199 198 197 196 196 201 207 203 199 200 197 196 197 198 193 182 180 185 185 189 198 191 181 189 198 195 187 142 125 139 195 183 171 182 194 194 194 199 203 199 194 201 209 213 216 218 224 240 254 256 265 279 282 291 301 297 297 304 310 314 317 320 320 315 307 303 304 306 308 310 311 311 310 308 305 302 299 296
215 215 213 207 203 203 203 202 201 200 201 200 201 204 203 201 200 199 202 204 205 205 197 186 182 180 186 199 196 188 190 193 194 197 193 145 132 166 183 164 175 197 202 202 204 208 205 200 205 214 220 226 227 228 238 251 254 257 267 275 286 296 297 293 290 293 300 307 315 317 312 304 298 298 299 300 303 306 309 311 311 309 307 304 301
213 211 208 204 203 204 206 205 204 202 201 202 203 203 204 203 200 202 207 209 208 206 200 194 189 186 188 197 201 200 199 199 197 196 203 193 169 170 180 165 164 186 199 204 207 211 209 205 210 219 229 234 234 235 241 250 256 259 262 267 280 291 295 295 292 290 291 296 309 315 310 301 297 298 298 297 297 297 300 304 307 309 308 307 304
209 208 205 203 203 205 207 207 207 204 200 202 205 203 203 203 203 207 209 208 208 204 198 194 192 193 195 196 198 204 208 211 206 201 204 200 182 172 178 182 179 167 182 203 210 214 214 214 218 228 239 242 240 241 243 248 255 259 262 265 272 282 288 290 289 289 290 292 300 307 305 297 295 298 299 300 299 297 296 296 299 302 304 305 303
208 207 205 203 203 206 209 209 209 207 202 204 208 206 205 207 209 212 210 208 208 205 201 197 194 196 199 202 203 210 220 224 217 211 206 200 190 175 169 177 195 176 173 195 202 208 217 224 229 235 243 247 247 244 243 248 253 257 261 266 273 280 284 284 281 282 287 292 297 300 300 295 294 295 295 297 300 300 300 298 297 298 298 299 298
210 209 207 205 205 207 210 212 212 210 206 207 210 210 211 214 215 214 212 212 210 207 207 203 200 201 204 205 203 206 217 219 219 216 205 201 200 188 175 162 168 199 195 189 196 209 222 231 237 240 246 254 251 245 244 248 254 260 262 266 273 279 280 279 277 275 277 286 294 298 299 298 296 294 292 293 294 296 297 297 297 297 296 295 293
211 209 207 206 207 207 209 213 212 210 208 208 211 212 211 212 214 214 212 213 211 210 210 208 205 206 207 207 207 211 214 208 208 208 201 200 204 199 190 182 177 192 246 221 219 223 227 233 241 248 261 268 253 243 244 248 255 264 265 267 273 276 277 277 276 273 273 279 288 295 300 301 299 295 292 291 291 291 291 291 293 294 294 294 290
210 208 207 207 208 207 210 213 211 209 208 208 212 213 209 208 213 214 213 213 213 214 215 213 210 209 210 212 215 216 212 208 206 203 199 200 202 202 205 202 194 180 168 218 241 222 212 222 237 253 270 284 253 240 242 246 255 265 269 270 273 275 276 278 281 280 278 280 285 290 296 299 298 296 295 293 292 291 290 289 290 290 291 291 289
209 208 206 207 208 208 211 212 209 207 208 208 210 213 211 211 213 214 214 213 214 217 219 219 216 215 216 218 220 217 214 216 216 210 204 203 204 207 213 215 212 204 188 185 234 231 214 225 244 246 236 237 251 243 243 249 259 269 275 276 277 280 282 283 286 287 286 285 287 288 290 293 294 294 293 293 293 293 293 292 290 290 289 288 286
208 207 206 206 207 208 211 212 209 206 207 208 210 213 214 214 213 212 212 212 215 218 219 219 219 219 219 222 225 223 222 222 215 211 210 207 208 210 211 214 218 221 209 187 193 240 225 231 250 245 245 262 275 275 271 269 273 280 284 286 286 288 287 285 287 289 289 289 289 289 289 291 291 290 289 289 289 291 293 293 293 291 289 286 284
208 208 208 208 209 209 210 211 210 208 209 210 211 212 214 215 213 212 211 211 215 219 219 219 220 221 223 225 228 228 227 224 216 212 211 209 210 209 210 213 213 221 221 203 193 230 234 242 261 262 268 281 285 288 289 287 288 289 288 291 295 295 292 289 288 290 291 292 292 292 292 292 291 289 287 288 289 289 290 290 290 289 288 287 286
209 209 210 211 211 210 210 210 211 211 211 211 212 213 213 214 214 214 212 212 215 218 219 220 221 223 226 227 229 231 230 228 224 217 211 210 213 212 210 214 215 220 228 219 213 230 244 251 259 266 275 283 287 293 297 298 300 298 288 285 289 292 294 292 289 288 288 290 292 294 295 295 293 291 289 290 290 290 290 288 287 287 288 289 289
210 211 212 212 212 211 210 211 211 211 212 212 212 212 213 214 215 215 215 214 215 216 218 220 221 223 227 228 231 231 230 230 226 220 216 217 216 213 212 215 220 223 226 228 228 231 245 255 259 265 274 279 282 288 295 298 302 301 294 289 291 293 296 296 293 290 288 289 290 291 293 294 294 294 293 292 292 291 291 291 290 290 290 290 290
211 212 213 212 211 210 211 211 212 212 212 211 211 212 214 215 216 216 217 217 217 217 218 221 221 221 225 229 231 230 229 229 228 225 225 225 221 217 218 220 223 226 229 235 236 234 244 257 261 264 269 271 272 278 286 292 296 298 298 299 300 299 299 300 299 297 294 292 291 290 292 295 296 297 296 295 295 295 295 294 293 293 291 290 290
212 213 213 212 211 211 212 212 213 213 212 211 211 212 214 216 217 218 219 220 220 221 223 223 221 220 224 228 230 230 230 232 233 231 227 227 226 224 224 225 226 232 238 240 240 241 245 253 257 262 265 266 269 275 280 286 291 293 295 299 299 298 299 301 301 300 297 294 291 288 289 293 296 298 297 297 298 298 297 296 294 293 291 289 288
212 213 212 212 212 212 213 213 213 213 213 213 213 213 214 216 218 219 220 221 223 225 227 226 222 221 225 229 231 231 233 235 235 230 224 225 228 228 230 233 234 238 242 238 237 240 243 248 256 262 266 269 275 279 281 287 291 290 289 291 292 292 295 298 298 297 297 295 292 288 286 289 293 295 295 296 296 296 295 294 293 291 289 288 288
212 212 212 212 213 213 214 214 214 214 215 215 215 215 215 215 216 218 221 224 227 229 228 227 226 226 227 230 232 232 234 237 234 227 225 227 232 235 238 241 242 243 241 236 234 236 240 248 258 264 266 270 277 282 284 288 291 289 286 285 285 285 288 292 295 295 295 293 290 289 289 290 292 293 293 292 291 292 292 292 292 290 288 287 286
211 212 212 213 214 214 214 214 215 215 215 216 217 216 215 214 213 215 220 225 229 229 228 227 228 229 229 230 231 231 232 234 232 228 230 233 235 238 242 245 247 246 245 242 238 236 239 248 257 263 268 273 276 280 286 290 286 281 279 278 279 280 283 288 292 293 293 291 290 293 296 298 299 299 299 296 292 291 292 291 290 289 287 285 283
212 212 213 213 214 214 215 215 215 216 216 216 216 216 215 214 214 214 218 224 228 228 227 228 228 228 228 230 231 232 232 233 234 234 236 236 235 237 242 248 250 252 253 248 240 237 239 245 254 261 269 275 277 280 286 287 277 272 275 275 276 281 285 285 289 294 297 298 299 301 303 305 305 304 302 298 294 292 290 289 288 286 284 282 281
213 214 214 214 214 214 215 216 216 216 216 217 217 216 215 214 214 215 217 222 226 226 224 225 227 228 228 229 231 233 234 237 238 239 238 236 235 238 243 248 254 257 255 246 238 237 240 244 251 258 264 270 275 279 282 280 274 274 278 273 271 279 284 283 288 297 302 305 306 305 306 307 304 301 300 299 299 299 296 295 292 288 286 284 283
214 214 214 214 214 214 215 216 216 217 218 219 219 219 219 216 214 214 217 222 225 226 222 220 223 227 227 228 231 233 235 236 236 235 235 234 234 239 245 251 255 254 247 241 241 243 241 241 248 254 257 264 273 277 278 281 280 276 273 268 268 275 278 280 290 301 305 306 304 300 303 306 303 300 303 306 308 309 308 307 304 299 296 295 294
214 213 213 213 214 215 216 217 217 218 220 221 222 222 221 218 215 215 220 223 224 224 220 217 219 223 223 224 226 227 228 229 231 231 232 232 234 239 246 253 256 254 249 249 250 249 244 244 251 255 254 260 271 278 279 281 280 275 274 273 269 268 269 274 286 296 303 305 297 293 300 308 309 305 308 312 312 312 314 315 314 309 304 303 301
213 211 211 212 213 215 216 218 219 220 222 224 225 223 221 218 218 221 223 223 222 222 218 215 218 220 218 216 215 217 220 225 231 232 230 232 237 240 246 254 259 260 260 260 258 255 253 251 253 256 256 260 272 279 280 281 281 281 283 279 270 267 270 274 272 282 301 309 302 296 301 311 314 308 308 314 316 316 317 317 317 315 310 306 302
211 210 210 211 213 214 216 218 220 222 225 226 225 223 221 221 222 224 222 221 221 221 216 214 217 217 213 209 208 214 222 229 233 231 229 233 238 241 249 256 260 261 262 262 261 261 261 258 256 260 266 271 275 280 286 287 286 287 285 278 276 275 274 276 277 288 304 311 305 299 300 309 315 310 308 317 321 319 316 313 314 315 312 309 306
210 209 210 211 213 215 216 218 220 223 225 225 224 224 223 223 225 224 221 219 221 221 215 212 215 215 211 208 210 217 222 225 227 226 228 234 239 245 253 258 259 260 261 261 262 262 264 265 265 271 280 285 285 289 296 295 290 287 281 278 281 281 281 286 290 294 302 307 304 298 293 307 320 316 312 319 323 317 312 306 306 309 308 307 305
209 210 211 212 214 217 218 219 220 221 223 224 224 224 224 225 226 224 220 217 218 218 213 212 215 214 209 209 215 218 217 217 220 222 228 236 242 248 254 256 258 261 263 266 268 270 274 278 278 281 289 294 293 295 300 299 296 291 285 282 284 288 291 292 292 294 299 305 308 300 283 306 320 315 309 315 315 308 307 303 301 304 304 302 302
209 210 213 214 216 217 217 217 218 219 221 222 223 224 225 225 225 222 216 214 214 214 212 213 213 210 207 210 215 215 213 214 216 221 230 237 244 249 254 259 263 266 269 271 274 278 282 284 283 285 291 296 296 297 299 300 299 298 292 285 287 292 294 293 294 298 302 308 313 310 294 302 314 306 301 309 309 305 306 303 301 301 300 299 301
206 209 212 214 214 214 213 214 215 215 216 219 221 223 223 223 222 218 214 212 212 211 210 209 207 205 206 211 212 210 211 215 219 224 231 237 244 251 257 264 268 270 273 276 281 284 281 275 276 282 291 299 299 296 296 296 298 299 294 289 293 298 296 291 291 296 304 311 316 315 301 298 308 306 305 309 308 303 304 305 306 308 308 309 311
205 207 209 209 209 209 210 211 212 213 214 217 219 220 220 220 220 216 212 209 207 206 204 200 199 201 205 207 207 208 214 219 221 223 229 237 244 251 258 264 269 271 276 283 289 287 271 257 264 279 289 296 297 298 303 302 299 299 296 295 303 304 296 292 295 302 312 317 318 317 305 303 309 311 311 311 308 303 306 311 315 316 316 317 318
202 203 203 201 201 204 207 209 210 211 212 214 214 215 216 218 219 215 208 203 200 199 197 192 191 196 201 203 206 214 219 218 216 220 229 237 244 252 260 265 267 270 276 285 287 277 265 265 277 288 293 297 300 305 307 303 298 300 305 314 331 330 321 320 319 318 316 311 313 315 306 303 309 314 314 313 305 304 311 313 315 317 317 318 319